AAUSAT3

operational
NORAD ID: 39087 Int'l Des: 2013-009 Owner: AAU Country: DK
LEOCIRCULARRETROGRADESSO

AAUSAT3について

説明を読み込み中...

リアルタイム位置

3D地球を読み込み中...

次回通過

高度履歴

Altitude vs Time

uPlot chart will show altitude changes over time

軌道要素

1 39087U 13009B 26063.45772765 .00001210 00000-0 39902-3 0 9990
2 39087 98.3684 249.6406 0011806 162.1064 198.0543 14.39787750682102
Epoch: Mar 4, 2026 • Age: 17 hours

現在のステータス

高度 790.1 km
速度 7.45 km/s
衛星直下点 -67.50°S, 151.95°W
打ち上げ日 Feb 25, 2013
運用期間 13 years
タイプ other

技術仕様

分類 Payload
質量 3.00 kg
乾燥質量 3.00 kg
総質量 3.00 kg
長さ 0.10 m
直径 0.10 m
スパン 0.10 m
形状 Box
製造者 AAU
バスタイプ Cubesat 1U
フェーズステータス In Orbit
所有者/国 AAU/DK

大規模コンステレーション

Loading constellations...